Location: Unspecified
(0.0000°N, 0.0000°E)
Time: 18:50:38
(UTC+00:00)

deb Explorer IX - Pass Details

Date: 23 November 2019
Orbit: 545 x 1105 km, 38.8° (Epoch: 05 December)

Event Time Altitude Azimuth Distance (km) Brightness Sun altitude
Rises 18:49:15 0° 221° (SW) 3,633 ? -14.7°
Reaches altitude 10° 18:51:50 10° 217° (SW) 2,756 ? -15.3°
Maximum altitude 18:58:31 59° 138° (SE) 1,212 ? -16.9°
Enters shadow 19:02:36 27° 69° (ENE) 1,966 ? -17.8°
